Location: Tauranga
(37.6860°S, 176.1670°E)
Time: 06:57:16
(UTC+13:00)

HJ-1C - Visible Passes

Search period start: 16 November 2019 00:00
Search period end: 26 November 2019 00:00
Orbit: 433 x 449 km, 97.2° (Epoch: 15 November)

Date Brightness Start Highest point End Pass type
(mag) Time Alt. Az. Time Alt. Az. Time Alt. Az.
16 Nov 5.9 21:52:19 10° SSW 21:55:06 23° WSW 21:57:49 10° NW visible
17 Nov 3.5 21:14:17 10° S 21:17:44 80° WSW 21:21:07 10° NNW visible
18 Nov 4.4 20:37:11 10° SE 20:40:10 27° E 20:43:05 10° NNE visible
18 Nov 6.5 22:10:39 10° SW 22:12:29 14° WSW 22:14:18 10° W visible
19 Nov 4.7 21:31:56 10° S 21:35:13 42° WSW 21:38:25 10° NNW visible
20 Nov 3.6 20:54:23 10° SSE 20:57:44 49° E 21:01:00 10° N visible
21 Nov 5.8 21:49:48 10° SSW 21:52:38 24° WSW 21:55:25 10° NW visible
22 Nov 3.4 21:11:48 10° S 21:15:15 87° WSW 21:18:37 10° NNW visible
23 Nov 6.5 22:08:00 10° SSW 22:10:00 15° WSW 22:11:58 10° WNW visible
24 Nov 4.5 21:29:24 10° S 21:32:42 46° WSW 21:35:55 10° NNW visible
25 Nov 3.7 20:51:53 10° SSE 20:55:11 44° E 20:58:24 10° N visible
